This is the latest recevied weather packets stored in our database for station/object AE5PL. If no packets are shown the sender has not sent any weather packets the latest 1 day(s).
| Time | Temp. | Humidity | Pressure | Rain* | Wind** | Luminosity | Snow |
|---|---|---|---|---|---|---|---|
| 1777987305 | 22.22° C | 85% | 1004 hPa | - | 0.45 m/s, 247° | - | - |
| 1777987005 | 22.22° C | 85% | 1004 hPa | - | 0.89 m/s, 225° | - | - |
| 1777986705 | 22.22° C | 85% | 1003.9 hPa | - | 0.89 m/s, 225° | - | - |
| 1777986405 | 22.22° C | 85% | 1003.8 hPa | - | 1.34 m/s, 225° | - | - |
| 1777986105 | 22.22° C | 85% | 1003.9 hPa | - | 0.89 m/s, 225° | - | - |
| 1777985805 | 22.22° C | 86% | 1003.8 hPa | - | 0.89 m/s, 225° | - | - |
| 1777985505 | 22.22° C | 86% | 1003.7 hPa | - | 1.34 m/s, 247° | - | - |
| 1777985205 | 21.67° C | 86% | 1003.6 hPa | - | 1.79 m/s, 225° | - | - |
| 1777984905 | 21.67° C | 86% | 1003.6 hPa | - | 1.34 m/s, 225° | - | - |
| 1777984605 | 21.67° C | 86% | 1003.5 hPa | - | 1.34 m/s, 180° | - | - |
| 1777984305 | 21.67° C | 86% | 1003.6 hPa | - | 1.79 m/s, 225° | - | - |
| 1777984005 | 21.67° C | 87% | 1003.6 hPa | - | 1.34 m/s, 180° | - | - |
| 1777983705 | 21.67° C | 87% | 1003.6 hPa | - | 1.34 m/s, 180° | - | - |
| 1777983405 | 21.67° C | 87% | 1003.5 hPa | - | 1.34 m/s, 247° | - | - |
| 1777983105 | 21.67° C | 87% | 1003.4 hPa | - | 0.89 m/s, 247° | - | - |
| 1777982805 | 21.11° C | 87% | 1003.3 hPa | - | 0.89 m/s, 180° | - | - |
| 1777982505 | 21.11° C | 87% | 1003.3 hPa | - | 0.89 m/s, 225° | - | - |
| 1777982205 | 21.11° C | 87% | 1003.3 hPa | - | 0.89 m/s, 225° | - | - |
| 1777981905 | 21.11° C | 87% | 1003.2 hPa | - | 1.79 m/s, 180° | - | - |
| 1777981605 | 21.11° C | 87% | 1003.1 hPa | - | 1.34 m/s, 180° | - | - |
| 1777981305 | 21.11° C | 87% | 1003.1 hPa | - | 0.89 m/s, 225° | - | - |
| 1777981005 | 21.11° C | 87% | 1003.2 hPa | - | 0.89 m/s, 180° | - | - |
| 1777980705 | 21.67° C | 86% | 1003.3 hPa | - | 0.89 m/s, 247° | - | - |
| 1777980405 | 21.67° C | 86% | 1003.2 hPa | - | 1.79 m/s, 202° | - | - |
| 1777980105 | 21.67° C | 86% | 1003.1 hPa | - | 0.89 m/s, 247° | - | - |
* Rain since midnight (hover to see other rain measurements)
** Current wind speed in m/s (hover to see current wind gust speed)